Temperature
13 13 12 12 12 12 11 11 11 11 11 11 11 11 11 11 11 11 11 11 11 11 11 11 11 11 11 11 11 11 11 11 11 10 10 10 10 10 10 11 11 11 11
13 12 12 12 12 11 11 11 11 11 11 11 11 10 10 10 10 10 10 10 10 10 10 10 10 10 10 10 10 10 10 10 10 10 10 10 10 10 10 10 10 10 10
13 12 12 12 11 11 11 11 10 10 10 10 10 10 10 10 10 10 10 10 10 10 10 10 10 10 10 10 10 10 10 10 10 10 10 10 10 10 10 10 10 10 10
12 12 12 11 11 11 11 10 10 10 10 10 10 10 10 10 10 10 10 10 10 10 10 10 10 10 10 10 10 10 10 10 10 9 9 9 9 9 9 9 9 9 9
12 12 12 11 11 11 10 10 10 10 9 9 9 9 9 9 10 10 10 10 9 9 9 10 10 10 10 10 10 10 10 9 9 9 9 9 9 9 9 9 9 9 9
12 12 11 11 11 10 10 10 9 9 9 9 9 9 9 9 9 9 9 9 9 9 9 9 9 9 9 9 9 9 9 9 9 9 9 9 9 9 9 9 9 9 8
12 11 11 11 10 10 10 9 9 9 9 9 9 9 9 9 9 9 9 9 9 9 9 9 9 9 9 9 9 9 9 9 9 9 8 8 9 9 9 9 8 8 8
12 11 11 10 10 10 9 9 9 9 9 9 9 9 9 9 9 9 9 9 8 8 8 8 8 8 9 9 9 9 9 8 8 8 8 8 8 8 8 8 8 8 8
11 11 10 10 10 9 9 9 9 9 8 8 8 8 8 8 8 8 8 8 8 8 8 8 8 8 8 8 8 8 8 8 8 8 8 8 8 8 8 8 8 7 8
11 10 10 10 9 9 9 9 8 8 8 8 8 8 8 8 8 8 8 8 7 7 7 7 7 7 8 8 8 8 8 8 8 8 8 8 7 7 7 7 7 7 7
11 10 10 9 9 9 8 8 8 8 8 7 7 7 7 7 7 7 7 7 7 7 7 7 7 7 7 7 7 7 7 7 7 7 7 7 7 7 7 7 7 7 7
10 10 9 9 9 8 8 8 8 8 7 7 7 7 7 7 7 7 7 6 6 6 6 6 6 6 6 6 6 6 6 6 6 6 6 7 7 7 7 7 7 7 6
10 9 9 9 8 8 8 7 7 7 7 7 6 6 6 6 6 6 6 6 6 6 6 6 6 6 6 6 6 6 6 6 6 6 6 6 6 6 6 6 6 6 6
9 9 9 8 8 8 7 7 7 7 7 6 6 6 6 6 6 6 6 6 6 6 5 5 5 5 5 5 5 5 5 5 5 5 5 6 6 6 6 6 6 6 6
9 8 8 8 8 7 7 7 7 7 6 6 6 6 6 6 6 6 6 6 5 5 5 5 5 5 5 4 5 5 5 5 5 5 5 5 5 5 5 5 5 5 5
8 8 8 7 7 7 6 6 6 6 6 6 6 6 5 5 5 5 5 5 5 5 4 4 4 4 4 4 4 4 4 4 4 4 4 4 5 5 5 5 5 5 5
8 7 7 7 6 6 6 6 5 5 5 5 5 5 5 5 5 5 5 5 4 4 4 4 4 3 3 3 3 3 4 4 4 4 4 4 4 4 4 4 4 4 4
7 7 6 6 6 6 6 5 5 5 5 5 5 4 4 4 4 4 4 4 4 4 3 3 3 3 3 3 3 3 3 3 3 3 3 3 3 3 4 4 4 4 4
6 6 6 6 6 5 5 5 5 5 4 4 4 4 4 3 3 3 3 3 3 3 3 3 3 3 2 2 2 2 2 2 2 3 3 3 3 3 3 3 3 3 3
6 6 5 5 5 5 5 5 4 4 4 4 4 4 3 3 3 3 3 3 3 3 3 3 2 2 2 2 2 2 2 2 2 2 2 2 2 2 2 2 2 3 3
6 5 5 5 5 5 5 4 4 4 4 4 3 3 3 3 3 3 2 2 2 2 2 2 2 2 2 2 2 2 2 2 2 2 2 2 2 2 2 2 2 2 2
5 5 5 5 5 4 4 4 4 4 3 3 3 3 3 2 2 2 2 2 2 2 2 2 2 2 2 1 1 1 1 1 1 1 1 1 1 1 1 1 1 1 1
5 5 4 4 4 4 4 4 4 3 3 3 3 3 2 2 2 2 1 2 1 1 1 1 1 1 1 1 1 1 1 1 1 1 1 1 1 1 1 1 1 1 1
5 4 4 4 4 3 3 3 3 3 3 3 3 2 2 2 2 1 1 1 1 1 1 1 1 1 1 1 1 1 1 1 1 1 1 1 1 1 1 1 1 1 1
4 4 4 3 3 3 3 3 3 3 3 3 2 2 2 2 1 1 1 1 1 1 1 1 1 1 1 1 1 1 1 1 1 1 1 1 1 1 1 1 1 1 1
4 3 3 3 3 3 3 3 2 2 2 2 2 2 1 1 1 1 1 1 1 1 1 0 1 1 1 1 1 1 1 1 1 0 0 0 0 0 0 0 0 0 0
Wind_Speed
3 3 3 2 2 2 2 2 1 1 1 1 1 1 1 1 1 1 1 1 1 1 1 0 0 0 0 0 0 0 1 1 1 1 1 1 1 1 1 1 1 2 3
3 3 3 3 3 2 2 2 1 1 1 1 1 2 1 1 1 1 1 0 0 1 1 0 1 1 1 0 0 1 0 0 1 1 1 2 2 1 1 1 1 0 1
3 3 3 3 3 2 2 2 1 1 1 1 1 1 1 1 1 0 0 1 1 0 0 1 1 1 1 1 1 1 0 0 0 1 1 1 2 1 1 1 1 1 1
4 3 3 2 3 2 2 2 1 1 0 1 1 2 1 1 1 1 1 1 1 1 1 0 1 1 1 1 1 1 0 0 0 0 1 1 1 1 1 1 1 1 1
4 3 3 2 2 3 2 2 1 0 0 0 1 2 2 1 1 2 2 2 1 2 1 0 1 1 1 0 1 1 0 0 1 1 1 1 1 1 1 1 1 1 1
4 4 3 3 2 3 2 2 2 1 1 1 0 0 2 2 2 3 3 2 2 2 1 1 0 1 0 1 2 1 1 1 1 1 1 1 2 1 1 1 0 1 2
3 3 3 3 2 2 2 2 2 2 1 1 1 0 0 0 2 3 4 3 2 1 1 1 1 1 1 1 1 2 2 3 3 2 2 3 2 2 1 1 1 1 3
3 3 3 3 2 2 2 3 3 2 2 2 1 1 1 1 2 3 4 3 3 2 1 1 0 0 1 2 1 1 1 1 1 2 2 3 2 2 2 2 2 2 2
2 2 3 3 3 3 3 3 3 2 2 2 1 1 1 1 2 3 4 2 2 2 2 0 1 1 1 2 1 1 2 2 2 2 3 3 3 2 2 1 1 0 1
2 2 2 3 3 3 3 2 1 2 2 2 2 2 1 1 2 3 3 1 2 2 2 1 1 1 1 2 0 0 1 2 2 2 2 3 2 2 3 3 3 2 1
1 1 2 2 3 3 2 1 1 1 1 2 1 2 1 1 1 2 2 1 1 2 1 1 1 1 1 2 2 1 3 3 2 2 2 1 1 1 1 2 2 2 2
1 2 2 2 2 1 1 1 1 2 2 2 1 1 1 2 1 2 3 3 3 2 2 1 1 1 2 2 2 3 3 3 1 1 1 1 1 1 2 2 2 2 3
1 2 1 1 1 1 2 2 1 2 2 1 1 1 1 0 1 2 3 4 4 2 2 2 3 3 2 2 4 4 2 1 1 1 2 2 2 2 1 1 1 1 1
2 1 1 1 1 1 1 1 2 2 2 2 1 2 1 0 0 1 1 2 2 2 2 2 2 2 2 3 3 2 1 1 1 2 2 2 2 1 1 1 1 0 0
2 1 1 1 2 2 2 1 2 2 3 3 2 2 2 2 1 2 1 1 1 2 1 0 1 1 1 1 1 1 1 1 1 1 1 1 2 1 1 1 1 0 1
2 2 2 1 2 2 2 1 1 1 2 2 2 2 1 2 2 2 2 3 3 2 1 1 1 1 1 1 1 1 1 1 1 1 1 1 1 1 2 1 1 1 1
2 2 2 2 2 2 2 3 2 0 1 1 2 2 2 2 2 2 3 3 3 2 1 2 2 2 2 2 1 1 1 1 1 0 1 1 1 1 1 1 1 1 1
2 2 2 2 2 3 3 2 2 3 2 1 2 3 3 2 2 2 2 1 1 1 2 2 2 2 2 2 2 2 1 1 1 1 1 1 1 1 1 2 1 1 1
2 2 2 2 2 2 2 2 2 2 2 1 1 2 3 3 2 2 1 0 1 2 2 2 2 2 2 2 2 2 1 1 1 1 1 1 1 1 1 1 1 2 1
2 3 3 2 3 2 2 2 2 2 2 2 2 2 2 1 1 2 1 1 1 2 2 2 2 1 1 1 1 1 1 1 1 2 1 1 1 1 1 1 1 1 1
2 3 4 2 2 3 2 2 2 2 2 2 2 3 4 3 3 3 3 3 2 2 2 2 1 1 1 1 1 1 2 2 2 2 2 2 2 1 1 1 1 2 2
2 2 2 2 2 3 3 3 3 3 3 2 2 2 5 3 2 3 3 3 3 2 2 2 2 2 2 2 2 2 2 2 2 1 1 2 2 2 2 2 1 1 2
2 3 2 2 2 3 3 3 3 3 3 2 2 2 3 3 3 3 3 3 2 2 2 1 2 2 1 1 2 2 2 2 2 2 2 2 2 2 2 2 2 2 2
2 2 3 3 3 3 3 3 3 3 3 3 3 3 3 3 3 3 3 2 2 2 2 2 2 2 3 2 2 2 2 2 2 2 2 2 2 3 3 2 3 3 2
2 2 2 2 3 3 3 3 3 3 2 2 3 2 2 2 3 3 3 3 3 3 3 3 3 3 3 4 3 3 3 3 2 2 2 2 3 3 3 3 3 3 3
2 2 2 2 2 2 2 2 2 2 2 2 2 2 2 2 3 3 3 3 3 3 3 3 3 3 4 4 5 5 4 4 4 3 3 2 3 3 3 3 3 3 3
Wind_Direction
150 143 137 134 128 109 95 92 70 71 69 23 360 348 349 8 360 58 48 69 86 302 291 183 139 333 306 303 312 323 333 84 159 298 330 339 27 46 81 82 61 140 168
151 153 151 143 140 133 125 119 99 47 19 16 5 4 2 359 355 66 357 4 195 257 289 262 223 242 226 264 279 240 233 270 146 246 305 335 335 322 89 76 40 63 142
152 165 164 159 156 152 143 130 122 82 354 352 6 0 338 332 1 57 335 309 312 280 326 307 264 208 233 267 264 283 231 324 109 182 271 308 316 332 41 15 30 45 20
162 174 174 173 164 155 142 139 149 137 15 339 350 337 330 331 9 349 343 320 328 295 248 206 250 179 181 250 271 300 311 10 36 147 260 290 294 305 29 332 339 1 344
172 178 179 182 160 147 142 146 150 155 281 270 335 330 330 334 358 1 347 317 314 301 268 196 116 105 89 262 263 255 262 251 224 201 242 295 303 283 259 251 278 299 317
182 182 172 170 159 154 155 155 167 198 253 277 241 328 337 344 359 2 345 321 310 309 324 332 173 109 41 320 312 283 227 224 220 208 236 233 255 272 287 278 294 338 296
178 174 160 159 161 164 172 171 191 201 217 263 276 242 313 25 331 340 339 330 309 290 301 293 304 6 39 350 354 345 301 264 227 209 223 241 238 241 245 302 285 250 258
176 173 164 167 170 174 185 199 200 199 211 211 232 231 211 257 299 320 322 310 295 273 247 244 141 91 11 20 354 325 301 304 263 233 223 239 244 211 204 225 245 267 289
180 168 170 172 184 194 206 210 201 195 214 217 205 218 222 270 299 308 318 292 294 288 265 256 85 102 34 23 21 318 305 306 304 282 268 250 262 260 219 192 258 255 291
184 182 189 185 191 203 205 211 212 193 209 222 221 219 207 186 275 298 310 289 291 302 316 8 23 39 21 29 3 280 286 299 318 318 303 285 258 244 236 197 197 209 251
156 177 204 195 198 198 199 193 195 207 219 229 232 222 200 194 234 288 303 308 287 290 304 336 353 356 353 335 344 298 275 291 289 278 272 281 273 239 224 208 189 187 212
173 193 214 199 193 189 178 199 196 194 213 235 241 250 214 194 188 255 268 274 294 273 262 277 287 300 297 312 316 300 304 316 289 283 267 260 258 253 253 237 226 219 219
216 203 194 183 165 164 174 192 210 209 206 228 233 251 266 230 213 256 264 277 279 282 277 263 262 284 311 293 292 299 310 295 275 267 263 256 245 243 246 261 265 232 258
222 212 188 176 158 139 151 180 198 220 220 217 231 242 257 268 230 244 263 284 297 296 299 285 275 282 288 285 296 290 261 240 235 249 268 278 277 260 246 237 237 248 308
224 215 189 177 173 171 170 180 190 214 209 212 218 218 221 236 265 287 261 242 246 252 286 40 26 344 318 294 284 269 264 264 268 267 263 283 296 293 277 259 215 200 206
222 215 198 190 192 180 171 162 154 190 185 192 185 190 225 239 238 256 282 281 267 248 209 176 213 230 236 245 253 267 285 291 281 297 287 270 276 265 274 281 251 214 217
223 210 199 196 198 193 187 189 201 235 186 190 190 197 215 237 238 241 256 264 256 239 217 211 217 226 232 227 231 236 243 262 272 291 283 287 286 278 267 268 259 250 257
224 218 209 200 192 193 194 201 200 195 201 230 221 207 204 210 228 238 246 266 239 223 228 224 227 227 232 230 227 231 235 241 247 256 278 289 294 288 276 277 255 237 247
228 206 196 189 189 192 190 196 202 205 205 202 197 218 210 208 214 220 205 191 230 244 241 237 232 230 233 229 232 235 226 217 233 237 250 289 295 290 281 285 294 287 269
239 218 206 194 190 189 191 195 195 201 213 218 214 204 181 177 206 217 214 238 252 258 259 253 239 223 225 230 238 241 228 221 228 229 231 244 268 274 284 281 275 283 266
224 213 207 206 197 194 200 205 203 208 218 228 227 203 189 198 207 212 212 222 232 242 251 255 254 232 210 210 236 246 238 236 239 229 219 227 240 254 270 289 300 294 286
223 214 203 205 210 210 210 211 210 214 217 229 236 210 200 210 216 219 219 225 232 235 238 238 242 230 217 209 216 230 237 238 240 239 223 228 234 248 255 255 280 298 293
221 219 209 209 213 221 222 221 218 217 221 221 217 205 207 219 221 225 221 216 223 236 250 246 244 239 246 230 212 216 225 239 241 227 218 225 235 244 249 252 254 267 288
239 236 218 208 216 219 222 227 225 223 215 213 215 214 211 218 226 226 222 217 221 229 233 236 242 241 231 245 230 217 225 236 252 249 231 228 238 243 245 247 249 248 258
253 248 238 226 225 226 228 229 227 229 228 225 224 223 215 215 224 224 223 220 220 226 229 232 237 234 224 226 226 220 219 222 239 254 242 233 236 240 241 240 244 251 253
247 256 254 245 241 237 235 237 239 237 233 232 228 226 223 222 223 226 225 221 221 229 233 237 240 238 239 233 221 216 221 226 231 235 238 237 232 235 237 242 245 243 249
Height
1514 1515 1515 1516 1516 1517 1517 1517 1517 1517 1517 1517 1517 1517 1517 1517 1517 1518 1518 1518 1518 1519 1519 1520 1520 1521 1521 1522 1522 1523 1523 1523 1522 1522 1523 1522 1521 1521 1520 1520 1519 1519 1519
1512 1513 1514 1514 1514 1515 1515 1516 1516 1516 1516 1516 1516 1516 1516 1516 1516 1516 1516 1516 1516 1517 1517 1518 1518 1519 1519 1520 1520 1521 1521 1521 1521 1520 1520 1520 1520 1519 1519 1518 1518 1518 1517
1510 1511 1512 1512 1513 1513 1513 1514 1514 1514 1514 1514 1514 1514 1514 1514 1514 1514 1514 1514 1515 1515 1515 1515 1516 1516 1517 1517 1518 1518 1519 1519 1519 1519 1519 1519 1518 1518 1517 1517 1517 1516 1516
1508 1509 1510 1510 1511 1511 1511 1512 1512 1512 1512 1512 1512 1512 1512 1512 1512 1512 1512 1512 1512 1513 1513 1513 1514 1514 1514 1515 1515 1516 1516 1517 1517 1517 1517 1517 1517 1516 1516 1515 1514 1514 1514
1506 1507 1507 1508 1509 1509 1509 1509 1510 1510 1510 1510 1510 1510 1510 1510 1510 1510 1510 1510 1510 1510 1511 1511 1511 1511 1511 1512 1512 1513 1513 1514 1514 1514 1514 1514 1514 1514 1514 1513 1513 1512 1512
1503 1504 1505 1506 1506 1507 1507 1507 1507 1507 1508 1508 1508 1508 1508 1508 1508 1508 1508 1508 1508 1508 1508 1509 1509 1509 1509 1509 1509 1510 1510 1511 1511 1512 1512 1512 1512 1512 1512 1511 1511 1510 1510
1501 1502 1502 1503 1503 1504 1504 1505 1505 1505 1505 1505 1505 1505 1505 1505 1505 1506 1506 1506 1506 1506 1506 1506 1506 1506 1506 1506 1506 1507 1507 1508 1509 1509 1509 1509 1509 1509 1509 1509 1508 1508 1508
1498 1499 1500 1500 1501 1501 1501 1502 1502 1502 1502 1502 1502 1502 1502 1502 1503 1503 1503 1503 1503 1503 1503 1504 1504 1503 1503 1503 1503 1504 1504 1504 1505 1506 1506 1506 1506 1507 1506 1507 1506 1506 1506
1496 1496 1497 1497 1498 1498 1498 1499 1499 1499 1499 1499 1499 1500 1499 1499 1500 1500 1500 1500 1500 1500 1500 1501 1501 1501 1500 1500 1501 1501 1501 1501 1502 1502 1502 1503 1503 1503 1503 1504 1503 1503 1502
1493 1493 1494 1494 1494 1495 1495 1496 1496 1496 1496 1496 1496 1496 1496 1496 1496 1497 1497 1496 1496 1497 1497 1497 1497 1497 1497 1497 1497 1497 1497 1498 1498 1498 1499 1499 1499 1500 1500 1500 1500 1500 1500
1490 1490 1490 1491 1491 1491 1492 1492 1493 1493 1493 1493 1493 1493 1493 1493 1493 1493 1493 1493 1493 1493 1493 1493 1494 1494 1494 1494 1494 1494 1494 1495 1495 1495 1495 1495 1496 1496 1496 1497 1497 1497 1497
1487 1487 1487 1487 1487 1488 1488 1489 1489 1489 1489 1490 1490 1490 1490 1490 1490 1490 1490 1490 1490 1490 1490 1490 1490 1490 1490 1490 1490 1491 1491 1491 1491 1491 1491 1491 1492 1492 1493 1493 1493 1493 1494
1483 1483 1484 1484 1484 1484 1484 1484 1485 1485 1485 1485 1486 1486 1486 1486 1486 1486 1486 1486 1486 1486 1486 1486 1486 1487 1487 1487 1487 1487 1487 1488 1488 1488 1488 1488 1488 1489 1489 1489 1489 1490 1490
1479 1480 1480 1480 1480 1480 1481 1481 1481 1481 1481 1481 1481 1482 1482 1482 1481 1481 1482 1482 1482 1482 1482 1482 1483 1483 1483 1483 1484 1484 1484 1484 1484 1484 1485 1485 1485 1485 1485 1486 1486 1486 1486
1476 1476 1476 1476 1476 1477 1477 1477 1477 1477 1478 1478 1477 1478 1478 1477 1478 1478 1478 1478 1478 1478 1478 1479 1479 1479 1479 1480 1480 1480 1481 1481 1481 1481 1481 1482 1482 1482 1482 1482 1482 1483 1483
1473 1473 1473 1473 1473 1473 1473 1474 1474 1474 1474 1475 1475 1475 1474 1475 1474 1474 1475 1475 1475 1475 1475 1474 1475 1475 1476 1476 1477 1477 1478 1478 1478 1478 1478 1478 1478 1478 1479 1479 1479 1479 1479
1469 1469 1469 1469 1469 1470 1470 1470 1470 1471 1471 1471 1471 1471 1471 1471 1471 1471 1471 1471 1471 1471 1471 1470 1471 1472 1472 1473 1474 1474 1474 1475 1475 1475 1475 1475 1475 1475 1476 1476 1476 1476 1476
1466 1466 1466 1466 1466 1466 1466 1467 1467 1467 1467 1466 1467 1467 1467 1467 1467 1467 1467 1467 1466 1466 1466 1466 1467 1468 1469 1470 1470 1471 1471 1472 1472 1472 1472 1472 1472 1472 1472 1473 1473 1473 1473
1462 1462 1462 1462 1463 1463 1463 1463 1463 1463 1463 1463 1463 1463 1464 1463 1464 1464 1463 1463 1462 1462 1463 1463 1463 1464 1465 1466 1467 1467 1468 1468 1469 1469 1469 1469 1469 1470 1470 1470 1470 1470 1470
1459 1459 1459 1459 1459 1459 1460 1460 1460 1460 1460 1460 1460 1460 1460 1460 1459 1459 1459 1459 1459 1459 1459 1459 1460 1460 1461 1462 1463 1464 1464 1465 1465 1465 1465 1466 1466 1466 1466 1467 1467 1467 1467
1455 1455 1455 1456 1456 1456 1456 1457 1457 1457 1457 1456 1456 1457 1457 1456 1456 1456 1456 1456 1455 1455 1456 1456 1456 1457 1457 1458 1459 1460 1460 1461 1461 1462 1462 1462 1462 1462 1463 1463 1464 1464 1464
1451 1451 1452 1452 1452 1453 1453 1453 1454 1454 1453 1453 1453 1453 1453 1453 1452 1452 1452 1452 1452 1452 1452 1452 1452 1453 1453 1454 1455 1456 1457 1457 1458 1458 1459 1459 1459 1460 1460 1460 1461 1461 1461
1447 1448 1448 1449 1449 1449 1450 1450 1450 1450 1450 1450 1450 1450 1449 1449 1449 1449 1448 1448 1448 1448 1449 1449 1449 1449 1449 1451 1451 1452 1453 1454 1454 1455 1456 1456 1456 1456 1457 1457 1457 1458 1458
1444 1444 1445 1445 1445 1445 1446 1446 1446 1446 1446 1446 1446 1446 1446 1445 1445 1445 1445 1445 1445 1445 1445 1445 1445 1445 1445 1446 1447 1448 1449 1450 1451 1452 1452 1452 1453 1453 1453 1454 1454 1454 1455
1441 1441 1441 1441 1442 1442 1442 1442 1442 1442 1442 1442 1442 1442 1442 1441 1441 1441 1441 1441 1441 1441 1441 1441 1441 1441 1441 1442 1443 1444 1445 1446 1447 1448 1448 1449 1449 1450 1450 1450 1450 1451 1451
1437 1437 1437 1437 1438 1438 1438 1438 1438 1438 1438 1438 1438 1438 1438 1437 1437 1437 1437 1437 1437 1437 1437 1437 1437 1437 1437 1438 1439 1440 1441 1442 1443 1444 1444 1445 1445 1446 1446 1447 1447 1447 1447